STARLINK-4742, 53795

Orbit data source: Space-Track

STARLINK-4742, 53795 is a payload satellite owned by SpaceX/Seattle (US) in LEO that was launched on Sun, 11 Sep 2022 UTC via an FALCON 9 launch vehicle from the Air Force Eastern Test Range (AFETR). Payload-class satellites include a variety of spacecraft equipped with specific instruments for various scientific and technological missions. These include communications satellites like Starlink; space stations such as the ISS; scientific satellites like the Hubble; Earth observation satellites from companies like Planet Labs, Umbra, and HawkEye 360; GPS; miniature CubeSats for education and research; and military/defense satellites.

Loading next visibility...
Identifier
53795, 2022-111Y
Orbit
LEO
Country
Flag of USUS
Related business
Manufacturer
SpaceX/Seattle
Mission
Operational Commercial Communications
Bus & Motor
STARLINK, Unknown motor
Mass
305 kg wet, ~290 kg dry
Launch date (UTC)
2022-09-11 (3 years ago)
Launch vehicle
FALCON 9
Launch site
Air Force Eastern Test Range (AFETR)
Object type
Payload
Rocket body
Debris
Shape & HBR
Box + 1 Pan, 10.1 m
Radar Cross Section
13.562 m², Large (>1 m²)

Expand to show TLE details & history
Last TLE update: 7 hours ago

TLE from 7 hours ago
0 STARLINK-4742
1 53795U 22111Y   26035.39081579  .00001798  00000-0  13100-3 0  9997
2 53795  53.2184  63.2921 0001402  87.6412 272.4741 15.08854926188666
Epoch: 2026-02-04T09:22Z
TLE epoch observation values (Epoch: 2026-02-04T09:22:46.484Z)
Latitude
0.00002°
Longitude
148.04035°
Altitude
540.554 km
Speed
7.593 km/s
True Right ascension
04h 13m 10s
True Declination
0° 00' 00"
Sunlit
Object was in daylight at epoch
Visualization orbit readout
Latitude
Unknown
Longitude
Unknown
Altitude
Unknown
Speed
Unknown
Apparent Right ascension
Unknown
Apparent Declination
Unknown
Sunlit
N/A
Visualization observer readout
Local Sidereal Time
18:42:59
Azimuth
Unknown
Elevation
Unknown
Doppler factor
Unknown
Orbital elements
Apogee altitude
540.912 km
Perigee altitude
538.973 km
Semi-major axis
6,918.08 km
Eccentricity
0.00014
Inclination
53.2184°
RAAN
63.2921°
Arg. of periapsis
87.6412°
True anomaly
272.45805°
Mean anomaly
272.4741°
Eccentric anomaly
272.46607°
Mean motion
3.77194 °/min
Orbital period
95.44 mins
BSTAR
0.000131
Loading maneuver chart data...
Computing Atmospheric mass density...
Loading historical data...
Loading historical data...
Loading historical data...
Loading historical data...
Loading historical data...
Loading historical data...
Loading historical data...

Documentation

Showing up to 5 results
|